Weather observations for the past three days for
Rice Lake, Rice Lake Regional-Carl's Field Airport
Imperial (Metric)
Date Time (cdt) Wind (mph) Vis. (mi.) Weather Sky Cond. Temperature (ºF) Relative Humidity Wind Chill (°F) Heat Index (°F) Pressure Precipitation (in)
Air Dwpt 6 hour altimeter (in) sea level (mb) 1 hr 3 hr 6 hr
Max. Min.
12 13:55 S 9 7.00 Partly Cloudy SCT090 69.4 56.1 63% 29.8 0.0
12 13:35 S 10 G 17 7.00 Fair CLR 70.2 55.4 60% 29.8 0.0
12 13:15 S 13 10.00 Fair CLR 70.9 54.9 57% 29.81 0.0
12 12:55 S 10 7.00 Fair CLR 71.1 55 71.1 56.5 57% 29.81 0.0 0.03
12 12:35 S 12 10.00 Fair CLR 70.3 55.9 60% 29.82 0.0
12 11:55 SE 8 10.00 Partly Cloudy SCT110 67.8 57 69% 29.82 0.0
12 11:35 SE 10 10.00 Mostly Cloudy BKN110 66.4 58.6 76% 29.82 0.0
12 11:15 SE 9 10.00 Overcast SCT090 OVC110 65.5 58.8 79% 29.83 0.0
12 10:55 SE 6 7.00 Mostly Cloudy BKN100 BKN120 64 58.5 82% 29.83 0.0 0.01
12 10:35 E 5 10.00 Overcast OVC100 63 58.6 86% 29.85 0.0 0.01
12 10:15 SE 3 10.00 Light Rain SCT080 OVC100 63.1 57.9 83% 29.87 0.0 0.01
12 09:55 SW 7 10.00 Light Rain SCT070 OVC100 64 56.3 76% 29.88 0.0 0.02 0.02
12 09:35 SW 9 10.00 Light Rain SCT034 SCT044 OVC100 66.7 55.9 68% 29.88 0.0
12 09:15 Calm 10.00 Light Rain BKN100 BKN120 67.8 56.8 68% 29.84 0.0
12 08:55 S 5 7.00 Partly Cloudy SCT110 67.5 56.3 68% 29.83 0.0
12 08:35 SE 6 7.00 Fair CLR 66.9 55.6 67% 29.82 0.0
12 08:15 SE 5 7.00 Fair CLR 63.7 55.4 75% 29.83 0.0
12 07:55 SE 3 7.00 Fair CLR 61.7 55.6 80% 29.83 0.0
12 07:35 SE 3 7.00 Fair CLR 59.5 54.9 85% 29.83 0.0
12 07:15 Calm 7.00 Fair CLR 57.2 53.6 88% 29.83 0.0
12 06:55 E 3 7.00 Fair CLR 56.3 53.6 56.3 51.1 91% 29.83 0.0
12 06:35 Calm 5.00 Fog/Mist CLR 54.3 52.2 92% 29.84 0.0
12 06:15 Calm 7.00 Fair CLR 52.5 50.9 94% 29.84 0.0
12 05:55 Calm 5.00 Fog/Mist CLR 52.9 51.3 94% 29.84 0.0
12 05:35 Calm 7.00 Fair CLR 51.8 50 94% 29.84 0.0
12 05:15 Calm 7.00 Fair CLR 51.3 49.5 94% 29.83 0.0
12 04:55 Calm 7.00 Fair CLR 51.6 49.8 94% 29.84 0.0
12 04:35 Calm 7.00 Fair CLR 52 50.4 94% 29.84 0.0
12 04:15 Calm 1.25 Fog/Mist VV007 52.3 50.7 94% 29.84 0.0
12 03:55 Calm 5.00 Fog/Mist CLR 52.3 50.9 95% 29.85 0.0
12 03:35 Calm 7.00 Fair CLR 52.7 51.1 94% 29.84 0.0
12 03:15 Calm 3.00 Fog/Mist CLR 53.4 51.6 94% 29.84 0.0
12 02:55 Calm 7.00 Fair CLR 53.8 52 94% 29.84 0.0
12 02:35 Calm 7.00 Fair CLR 54.1 52.2 93% 29.84 0.0
12 02:15 Calm 10.00 Fair CLR 54.5 52.7 94% 29.83 0.0
12 01:55 Calm 7.00 Fair CLR 55.2 53.6 94% 29.83 0.0
12 01:35 Calm 7.00 Fair CLR 55.2 53.6 94% 29.83 0.0
12 01:20 Calm 4.00 Fog/Mist CLR 55 53.4 94% 29.83 0.0
12 00:55 Calm 7.00 Fair CLR 55.4 53.6 77 55.4 94% 29.82 0.0
12 00:40 Calm 7.00 Fair CLR 55.9 54.3 94% 29.82 0.0
12 00:15 Calm 10.00 Fair CLR 57 54.7 92% 29.82 0.0
11 23:55 Calm 7.00 Fair CLR 57.4 54.9 91% 29.82 0.0
11 23:35 Calm 10.00 Fair CLR 57.9 55.6 92% 29.82 0.0
11 23:15 Calm 10.00 Fair CLR 59.2 56.1 90% 29.81 0.0
11 22:55 Calm 10.00 Fair CLR 59.9 56.3 88% 29.81 0.0
11 22:35 Calm 5.00 Fair with Haze CLR 61.2 56.1 84% 29.81 0.0
11 22:15 Calm 7.00 Fair CLR 62.1 56.3 82% 29.81 0.0
11 21:55 Calm 10.00 Fair CLR 63.1 55.6 77% 29.8 0.0
11 21:35 Calm 7.00 Fair CLR 65.3 56.7 74% 29.8 0.0
11 21:15 Calm 10.00 Fair CLR 67.1 54.9 65% 29.79 0.0
11 20:55 Calm 7.00 Fair CLR 71.6 53.1 52% 29.79 0.0
11 20:35 Calm 10.00 Fair CLR 73 53.1 50% 29.79 0.0
11 20:15 W 3 7.00 Fair CLR 74.5 52.7 47% 29.79 0.0
11 19:55 W 6 10.00 Fair CLR 75.9 51.8 43% 78 29.79 0.0
11 19:35 W 7 10.00 Fair CLR 76.5 52 43% 78 29.78 0.0
11 19:15 W 9 7.00 Fair CLR 76.8 54.7 46% 78 29.78 0.0
11 19:00 SW 5 7.00 Partly Cloudy SCT048 76.3 57.9 53% 78 29.77 0.0
11 18:35 Calm 10.00 Overcast BKN050 OVC060 74.5 58.8 58% 29.78 0.0
11 18:15 S 6 7.00 Mostly Cloudy SCT048 BKN050 BKN060 73.6 59.2 61% 29.78 0.0
11 17:55 S 5 7.00 Light Rain BKN047 BKN065 BKN070 73.4 59.5 62% 29.78 0.0
11 17:35 S 6 10.00 Overcast BKN043 OVC050 73.6 57.7 58% 29.78 0.0
11 17:15 S 8 10.00 Mostly Cloudy SCT041 BKN049 BKN070 74.3 56.5 54% 29.79 0.0
11 16:55 S 7 7.00 Partly Cloudy SCT041 SCT049 74.1 56.7 55% 29.79 0.0
11 16:35 S 6 G 17 10.00 Partly Cloudy SCT036 73.8 56.5 55% 29.8 0.0
11 16:15 S 7 7.00 Fair CLR 72.7 56.3 57% 29.81 0.0
11 15:55 S 12 7.00 Partly Cloudy SCT034 71.2 55.4 57% 29.82 0.0
11 15:35 S 7 7.00 Mostly Cloudy BKN034 69.1 54.7 60% 29.82 0.0
11 15:15 S 10 G 16 7.00 Mostly Cloudy BKN036 69.1 53.8 58% 29.82 0.0
11 14:55 S 8 7.00 Overcast OVC036 67.1 53.2 61% 29.82 0.0
11 14:35 S 10 7.00 Overcast OVC036 64.6 51.8 63% 29.84 0.0
11 14:15 S 9 7.00 Overcast OVC036 63.1 51.3 65% 29.84 0.0
11 13:55 S 9 7.00 Overcast BKN038 OVC046 62.1 50.7 67% 29.84 0.0
11 13:35 S 12 G 18 10.00 Overcast SCT038 BKN046 OVC060 62.8 50.5 64% 29.84 0.0
11 13:15 S 13 G 17 10.00 Overcast BKN060 OVC070 62.1 51.3 68% 29.85 0.0
11 12:55 S 9 7.00 Overcast OVC060 59.7 50.5 59.7 52.5 72% 29.85 0.0 0.07
11 12:35 SE 10 10.00 Overcast SCT048 OVC060 58.1 50.2 75% 29.86 0.0
11 12:15 SE 9 7.00 Overcast OVC046 57.2 50.5 79% 29.86 0.0
11 11:55 SE 10 7.00 Overcast SCT036 OVC048 56.1 50 80% 29.86 0.0
11 11:35 SE 9 10.00 Overcast BKN037 BKN042 OVC048 55.4 50 82% 29.87 0.0
11 11:15 SE 9 10.00 Overcast SCT025 SCT032 OVC039 54.9 50 84% 29.89 0.0
11 10:55 SE 9 10.00 Overcast SCT033 BKN042 OVC050 54 49.6 85% 29.9 0.0 0.06
11 10:35 SE 12 4.00 Rain SCT049 OVC055 54.5 49.8 84% 29.9 0.0 0.05
11 10:15 SE 6 10.00 Rain SCT049 BKN065 OVC080 55.4 50 82% 29.9 0.0 0.01
11 09:55 SE 5 10.00 Drizzle SCT041 SCT065 OVC080 55.4 49.5 81% 29.91 0.0 0.01
11 09:35 SE 8 10.00 Light Drizzle SCT039 BKN070 OVC100 55.4 48.7 78% 29.91 0.0
11 09:15 SE 7 10.00 Light Rain SCT043 BKN055 OVC110 54.7 48.4 79% 29.91 0.0
11 08:55 SE 5 10.00 Light Rain SCT045 BKN075 OVC100 54 48.4 82% 29.92 0.0 0.01
11 08:35 SE 5 10.00 Light Rain OVC110 54 47.7 79% 29.92 0.0 0.01
11 08:15 SE 3 10.00 Light Rain BKN100 54.5 46.4 74% 29.93 0.0
11 07:55 SE 3 5.00 Partly Cloudy with Haze SCT110 54.1 46 74% 29.93 0.0
11 07:35 E 5 4.00 Fair with Haze CLR 53.8 46.4 76% 29.93 0.0
11 07:15 SE 5 4.00 Fair with Haze CLR 53.1 45.9 77% 29.94 0.0
11 06:55 Calm 7.00 Fair CLR 52.3 45.7 52.3 47.3 78% 29.95 0.0
11 06:35 Calm 10.00 Fair CLR 51.8 45.7 80% 29.95 0.0
11 06:15 Calm 10.00 Fair CLR 51.3 44.6 78% 29.95 0.0
11 05:55 Calm 10.00 Fair CLR 50.5 43.2 76% 29.94 0.0
11 05:35 Calm 10.00 Fair CLR 50 42.6 76% 29.94 0.0
11 05:15 Calm 10.00 Fair CLR 49.5 42.4 77% 29.94 0.0
11 04:55 Calm 10.00 Fair CLR 49.5 41 73% 29.95 0.0
11 04:35 Calm 10.00 Fair CLR 47.7 43.5 86% 29.95 0.0
11 04:15 Calm 7.00 Fair CLR 47.8 43.5 85% 29.95 0.0
11 03:55 Calm 10.00 Fair CLR 47.7 44.1 87% 29.96 0.0
11 03:35 Calm 7.00 Fair CLR 47.7 44.1 87% 29.96 0.0
11 03:15 Calm 10.00 Fair CLR 50.2 43.5 78% 29.96 0.0
11 02:55 Calm 7.00 Fair CLR 48.9 43.5 82% 29.96 0.0
11 02:35 Calm 10.00 Fair CLR 50.2 44.1 80% 29.97 0.0
11 02:15 Calm 10.00 Fair CLR 49.6 43.9 81% 29.98 0.0
11 01:55 Calm 7.00 Fair CLR 51.3 43.5 75% 29.98 0.0
11 01:35 Calm 10.00 Fair CLR 51.3 45.5 81% 29.98 0.0
11 01:15 Calm 7.00 Fair CLR 50.5 46.6 86% 29.99 0.0
11 00:55 Calm 7.00 Fair CLR 51.4 47.7 72.7 50.2 87% 30 0.0
11 00:35 Calm 10.00 Fair CLR 50.9 47.5 88% 30 0.0
11 00:15 Calm 7.00 Fair CLR 53.6 46.8 78% 29.99 0.0
10 23:35 NE 3 10.00 Fair CLR 53.2 48.6 84% 30.01 0.0
10 23:15 Calm 10.00 Fair CLR 54.1 48.6 82% 30.01 0.0
10 22:55 Calm 7.00 Fair CLR 54.7 48.6 80% 30 0.0
10 22:35 Calm 7.00 Fair CLR 56.5 48.7 75% 30 0.0
10 22:15 Calm 7.00 Fair CLR 57.2 48.6 73% 29.99 0.0
10 21:55 Calm 7.00 Fair CLR 57.4 48.6 73% 29.99 0.0
10 21:35 Calm 10.00 Fair CLR 61 48.7 64% 29.98 0.0
10 21:15 Calm 7.00 Fair CLR 62.2 48.4 61% 29.98 0.0
10 20:55 Calm 5.00 Fair with Haze CLR 63.7 49.1 59% 29.98 0.0
10 20:35 Calm 5.00 Fair with Haze CLR 65.8 48 53% 29.98 0.0
10 20:15 Calm 7.00 Fair CLR 64.8 49.3 57% 29.99 0.0
10 19:55 Calm 10.00 Fair CLR 70.2 39.4 33% 29.98 0.0
10 19:35 Calm 7.00 Fair CLR 70.5 34.5 27% 29.98 0.0
10 19:15 Calm 10.00 Fair CLR 71.4 34.3 26% 29.98 0.0
10 18:55 Calm 10.00 Fair CLR 73 34 73.4 67.3 24% 29.99 0.0
10 18:35 NE 3 7.00 Fair CLR 71.8 34.9 26% 29.99 0.0
10 18:15 Calm 7.00 Fair CLR 71.6 33.4 25% 30 0.0
10 17:55 Calm 7.00 Fair CLR 71.6 35.4 27% 30.01 0.0
10 17:35 E 3 10.00 Fair CLR 72.9 35.2 25% 30.01 0.0
10 17:15 Calm 7.00 Fair CLR 71.4 33.3 25% 30.02 0.0
10 16:55 NE 5 7.00 Fair CLR 71.6 33.8 25% 30.03 0.0
10 16:35 Calm 10.00 Fair CLR 72.3 33.3 24% 30.02 0.0
10 16:15 Calm 10.00 Fair CLR 71.1 36.7 29% 30.03 0.0
10 15:55 Calm 10.00 Fair CLR 70.7 36.1 28% 30.04 0.0
10 15:35 NE 5 7.00 Fair CLR 70 36 29% 30.04 0.0
10 15:15 NE 7 7.00 Fair CLR 70 35.8 29% 30.04 0.0
10 14:55 N 3 10.00 Fair CLR 69.3 34.9 28% 30.05 0.0
10 14:35 N 6 10.00 Fair CLR 70.2 34.7 27% 30.06 0.0
10 14:15 N 9 7.00 Fair CLR 69.6 35.2 28% 30.06 0.0
10 13:55 N 9 7.00 Fair CLR 69.1 35.4 29% 30.07 0.0
10 13:35 N 6 7.00 Fair CLR 67.6 34.9 30% 30.08 0.0
10 13:15 NW 5 10.00 Fair CLR 68.2 36.9 32% 30.09 0.0
10 12:55 N 12 7.00 Fair CLR 68.4 35.6 68.4 48.4 30% 30.09 0.0
10 12:35 NW 7 7.00 Fair CLR 66.6 35.6 32% 30.09 0.0
10 12:15 N 7 7.00 Fair CLR 66.6 36.7 33% 30.1 0.0
10 11:55 NW 6 7.00 Fair CLR 66 37.6 35% 30.1 0.0
10 11:35 NW 6 7.00 Fair CLR 64.8 35.8 34% 30.11 0.0
10 11:15 N 5 10.00 Fair CLR 64.4 35.8 35% 30.1 0.0
10 10:55 N 5 10.00 Fair CLR 63.7 35.2 35% 30.1 0.0
10 10:35 N 3 10.00 Fair CLR 63.1 33.6 33% 30.11 0.0
10 10:15 NE 5 7.00 Fair CLR 62.6 34 34% 30.11 0.0
10 09:55 N 5 10.00 Fair CLR 61.9 37.8 41% 30.11 0.0
10 09:35 N 5 10.00 Fair CLR 60.1 44.8 57% 30.11 0.0
10 09:15 Calm 10.00 Fair CLR 58.5 45.9 63% 30.12 0.0
10 08:55 Calm 10.00 Fair CLR 56.1 46.9 71% 30.12 0.0
10 08:35 Calm 10.00 Fair CLR 54.3 47.5 78% 30.12 0.0
10 07:55 Calm 10.00 Fair CLR 51.6 47.5 86% 30.12 0.0
10 07:35 N 3 7.00 Fair CLR 50.9 47.5 88% 30.11 0.0
10 07:15 Calm 7.00 Fair CLR 49.5 46.8 90% 30.11 0.0
10 06:55 Calm 7.00 Fair CLR 48.2 46.4 48.2 43 94% 30.11 0.0
10 06:35 Calm 7.00 Fair CLR 46.9 45.5 95% 30.1 0.0
10 06:15 Calm 5.00 Fog/Mist CLR 45.5 44.1 95% 30.1 0.0
10 05:55 Calm 7.00 Fair CLR 44.4 43 95% 30.1 0.0
10 05:35 N 3 7.00 Fair CLR 44.8 43.3 95% 30.09 0.0
10 05:15 W 3 5.00 Fog/Mist CLR 43.2 41.9 95% 30.09 0.0
10 04:55 Calm 0.00 NULL NULL 43.9 42.6 95% 30.09 0.0
10 04:35 Calm 7.00 Fair CLR 44.4 43 95% 30.08 0.0
10 04:15 Calm 4.00 Fog/Mist CLR 44.6 43 94% 30.09 0.0
10 03:55 Calm 7.00 Fair CLR 45.3 43.9 95% 30.08 0.0
10 03:35 Calm 7.00 Fair CLR 45.5 43.9 94% 30.08 0.0
10 03:15 Calm 7.00 Fair CLR 45.9 44.4 95% 30.08 0.0
10 02:55 Calm 5.00 Fog/Mist CLR 45.5 43.9 94% 30.08 0.0
10 02:35 Calm 7.00 Fair CLR 46.6 45 94% 30.08 0.0
10 02:15 Calm 7.00 Fair CLR 46.9 45.3 94% 30.08 0.0
10 01:55 Calm 7.00 Fair CLR 47.1 45.3 94% 30.08 0.0
10 01:35 Calm 7.00 Fair CLR 47.5 45.5 93% 30.08 0.0
10 01:15 Calm 7.00 Fair CLR 48 45.9 92% 30.08 0.0
10 00:55 Calm 7.00 Fair CLR 48.4 45.9 60.8 48.4 91% 30.07 0.0
10 00:35 Calm 7.00 Fair CLR 49.5 46.4 89% 30.07 0.0
10 00:15 NW 3 10.00 Fair CLR 49.8 46.4 88% 30.07 0.0
09 23:55 NW 5 7.00 Fair CLR 50.4 46.4 86% 30.07 0.0
09 23:35 NW 5 10.00 Fair CLR 51.3 46.6 84% 30.07 0.0
09 23:15 W 3 10.00 Fair CLR 51.3 46.6 84% 30.07 0.0
09 22:55 W 3 10.00 Fair CLR 51.8 46.4 82% 30.07 0.0
09 22:35 Calm 10.00 Fair CLR 53.2 46.4 78% 30.07 0.0
09 22:15 Calm 10.00 Fair CLR 54.7 45.9 72% 30.07 0.0
09 21:55 N 6 10.00 Mostly Cloudy BKN029 55.9 45.5 68% 30.07 0.0
09 21:35 N 9 10.00 Overcast OVC027 57 45.5 66% 30.06 0.0
09 21:15 N 12 G 17 7.00 Overcast OVC025 57.4 46.8 68% 30.06 0.0
09 20:55 N 13 G 17 7.00 Overcast OVC025 57.9 47.5 68% 30.05 0.0
09 20:35 N 10 7.00 Overcast OVC027 58.1 48.4 70% 30.04 0.0
09 20:15 N 15 7.00 Overcast OVC027 58.5 48.4 69% 30.04 0.0
09 19:55 N 12 G 17 10.00 Overcast OVC027 58.8 48.2 68% 30.04 0.0
09 19:35 N 9 10.00 Overcast BKN029 OVC035 59.4 48.2 67% 30.03 0.0
09 19:15 N 9 7.00 Overcast OVC033 60.1 47.8 64% 30.03 0.0
09 18:55 N 13 7.00 Overcast OVC033 61 48.4 65.1 61 63% 30.02 0.0
09 18:35 N 12 G 17 10.00 Overcast OVC033 61.3 48.2 62% 30.02 0.0
09 18:15 N 10 G 18 7.00 Overcast BKN033 BKN042 OVC070 62.4 47.8 59% 30.02 0.0
09 17:55 N 9 G 18 7.00 Overcast SCT041 BKN050 OVC070 62.2 47.8 59% 30.02 0.0
09 17:35 N 10 G 18 10.00 Overcast SCT041 OVC046 61.7 47.7 60% 30.02 0.0
09 17:15 N 10 10.00 Overcast OVC042 61.7 47.5 60% 30.01 0.0
09 16:55 N 10 G 18 7.00 Overcast OVC040 62.4 48 59% 30.01 0.0
09 16:35 N 10 7.00 Overcast OVC040 62.2 47.8 59% 30.01 0.0
09 16:15 N 13 G 18 7.00 Overcast BKN035 OVC042 62.6 48 59% 30.01 0.0
09 15:55 N 10 G 17 7.00 Overcast OVC037 63.3 47.1 56% 30 0.0
09 15:35 NW 12 G 22 7.00 Overcast OVC039 64.2 46.6 53% 29.99 0.0
09 15:15 NW 10 G 16 7.00 Overcast OVC037 64.2 47.5 55% 29.99 0.0
09 14:55 NW 13 G 18 7.00 Overcast BKN039 OVC050 64.2 46.6 53% 29.99 0.0
09 14:35 N 12 G 18 10.00 Overcast BKN037 OVC050 63.3 45.9 53% 29.99 0.0
09 14:15 NW 8 G 18 7.00 Overcast OVC037 62.6 45.9 55% 29.99 0.0
Date Time (cdt) Wind (mph) Vis. (mi.) Weather Sky Cond. Air Dwpt Max. Min. Relative Humidity Wind Chill (°F) Heat Index (°F) altimeter (in) sea level (mb) 1 hr 3 hr 6 hr
6 hour
Temperature (ºF) Pressure Precipitation (in)